Satellite: CASTOR
Catalog number: 35694
Epoch time:      10230.44082147
Element set:     655
Inclination:      051.5930 deg
RA of node:       222.0149 deg
Eccentricity:    0.0004218
Arg of perigee:   308.0851 deg
Mean anomaly:     053.0105 deg
Mean motion:   16.48877011 rev/day
Decay rate:   7.179566e-02 rev/day^2
Epoch rev:            6110
Checksum:              273

Satellite: METEOR-M
Catalog number: 35865
Epoch time:      10287.69567073
Element set:     741
Inclination:      098.7436 deg
RA of node:       340.5536 deg
Eccentricity:    0.0003062
Arg of perigee:   032.6187 deg
Mean anomaly:     327.5158 deg
Mean motion:   14.21831861 rev/day
Decay rate:       1.76e-06 rev/day^2
Epoch rev:            5570
Checksum:              308

Satellite: RS-38
Catalog number: 35869
Epoch time:      10287.72444622
Element set:     754
Inclination:      098.7436 deg
RA of node:       340.6222 deg
Eccentricity:    0.0005312
Arg of perigee:   027.4668 deg
Mean anomaly:     332.6765 deg
Mean motion:   14.21990683 rev/day
Decay rate:       1.77e-06 rev/day^2
Epoch rev:            5571
Checksum:              325

/EX


_______________________________________________
Via the Keps mailing list courtesy of AMSAT-NA
http://amsat.org/mailman/listinfo/keps

--- ViaMAIL!/WC v1.60d
 * Origin: Chowdanet (401-724-4410) telnet://chowdanet.com  (1:323/120)